Date String (YYYY-MM-DD hh:mm:ss) UTC,Instrument flags,absolute air pressure of the measurement (hPa),sample flow rate (lpm),inlet stack bypass flow (lpm),air temperature of the measurement (°C),ambient temperature measured by the external sensor (°C),aerosol sample conditioner tube jacket temperature (°C),OPC LED temperature (°C),internal box temperature (°C),relative humidity of the measurement (%),span deviation,mass concentration of particles derived from Lorenz-Mie calculation of OPC scattering (μg/m³),mass concentration of particles derived from Lorenz-Mie calculation of OPC scattering (μg/m³),mass concentration of particles derived from Lorenz-Mie calculation of OPC scattering (μg/m³)
DateTimeUTC,F1_M11,P_M11,Q1_M11,Q2_M11,T1_M11,T2_M11,T3_M11,T4_M11,T5_M11,U1_M11,ZSPAN_M11,X2_M11,X0_M11,X1_M11
2024-03-29 21:00:00,SystemResetWarning,0823.0,4.99,000.00,020.6,020.0,000.0,029.0,022.4,28.1,0000.0,0004.17,0008.49,0003.67
2024-03-29 21:01:00,SystemResetWarning,0822.8,5.00,000.00,020.6,020.0,000.0,029.0,022.4,28.1,0000.0,0004.18,0008.42,0003.69
2024-03-29 21:02:00,SystemResetWarning,0822.9,5.00,000.00,020.6,020.0,000.0,029.0,022.4,27.9,0000.0,0004.19,0008.45,0003.72
2024-03-29 21:03:00,SystemResetWarning,0822.9,5.00,000.00,020.6,020.0,000.0,029.0,022.4,27.9,0000.0,0004.22,0008.37,0003.74
2024-03-29 21:04:00,SystemResetWarning,0823.0,5.00,000.00,020.6,020.0,000.0,029.0,022.4,27.6,0000.0,0004.23,0007.96,0003.76
2024-03-29 21:05:00,SystemResetWarning,0823.0,5.00,000.00,020.6,020.0,000.0,029.0,022.4,27.5,0000.0,0004.26,0007.84,0003.78
2024-03-29 21:06:00,SystemResetWarning,0823.0,5.00,000.00,020.6,020.0,000.0,029.0,022.4,27.4,0000.0,0004.28,0007.67,0003.80
2024-03-29 21:07:00,SystemResetWarning,0823.0,5.00,000.00,020.6,020.0,000.0,029.0,022.4,27.5,0000.0,0004.29,0007.60,0003.82
2024-03-29 21:08:00,SystemResetWarning,0823.1,5.01,000.00,020.6,020.0,000.0,029.1,022.4,27.9,0000.0,0004.32,0007.67,0003.83
2024-03-29 21:09:00,SystemResetWarning,0823.1,5.01,000.00,020.6,020.1,000.0,029.1,022.5,28.2,0000.0,0004.36,0007.80,0003.84
2024-03-29 21:10:00,SystemResetWarning,0823.1,5.00,000.00,020.6,020.1,000.0,029.1,022.5,28.3,0000.0,0004.36,0007.75,0003.86
2024-03-29 21:11:00,SystemResetWarning,0823.0,4.99,000.00,020.6,020.1,000.0,029.1,022.4,27.9,0000.0,0004.37,0007.72,0003.88
2024-03-29 21:12:00,SystemResetWarning,0823.0,4.99,000.00,020.6,020.1,000.0,029.1,022.5,27.8,0000.0,0004.36,0007.66,0003.88
2024-03-29 21:13:00,SystemResetWarning,0823.0,5.01,000.00,020.6,020.1,000.0,029.1,022.5,27.9,0000.0,0004.35,0007.69,0003.88
2024-03-29 21:14:00,SystemResetWarning,0823.0,5.00,000.00,020.6,020.1,000.0,029.1,022.5,27.9,0000.0,0004.36,0008.42,0003.89
2024-03-29 21:15:00,SystemResetWarning,0823.1,5.00,000.00,020.6,020.1,000.0,029.1,022.5,27.8,0000.0,0004.39,0008.87,0003.91
2024-03-29 21:16:00,SystemResetWarning,0823.1,5.00,000.00,020.7,020.1,000.0,029.1,022.5,27.7,0000.0,0004.40,0009.00,0003.92
2024-03-29 21:17:00,SystemResetWarning,0823.1,5.00,000.00,020.7,020.1,000.0,029.1,022.5,27.9,0000.0,0004.41,0009.00,0003.94
2024-03-29 21:18:00,SystemResetWarning,0823.2,5.00,000.00,020.7,020.1,000.0,029.1,022.5,28.1,0000.0,0004.42,0009.19,0003.96
2024-03-29 21:19:00,SystemResetWarning,0823.1,4.99,000.00,020.7,020.1,000.0,029.1,022.5,28.7,0000.0,0004.43,0009.12,0003.98
2024-03-29 21:20:00,SystemResetWarning,0823.2,5.00,000.00,020.7,020.1,000.0,029.1,022.5,29.0,0000.0,0004.45,0009.70,0004.00
2024-03-29 21:21:00,SystemResetWarning,0823.2,5.01,000.00,020.7,020.1,000.0,029.1,022.5,28.2,0000.0,0004.47,0009.84,0004.01
2024-03-29 21:22:00,SystemResetWarning,0823.2,5.00,000.00,020.7,020.1,000.0,029.1,022.5,28.0,0000.0,0004.48,0009.83,0004.02
2024-03-29 21:23:00,SystemResetWarning,0823.3,5.01,000.00,020.7,020.1,000.0,029.1,022.5,27.8,0000.0,0004.51,0009.83,0004.04
2024-03-29 21:24:00,SystemResetWarning,0823.3,5.01,000.00,020.7,020.1,000.0,029.1,022.5,27.7,0000.0,0004.54,0009.88,0004.06
2024-03-29 21:25:00,SystemResetWarning,0823.3,5.00,000.00,020.7,020.1,000.0,029.2,022.5,27.7,0000.0,0004.52,0008.95,0004.07
2024-03-29 21:26:00,SystemResetWarning,0823.4,5.00,000.00,020.7,020.1,000.0,029.2,022.5,27.8,0000.0,0004.52,0008.50,0004.09
2024-03-29 21:27:00,SystemResetWarning,0823.4,4.99,000.00,020.7,020.1,000.0,029.2,022.5,27.7,0000.0,0004.54,0008.73,0004.10
2024-03-29 21:28:00,SystemResetWarning,0823.4,5.00,000.00,020.7,020.1,000.0,029.2,022.5,28.0,0000.0,0004.54,0009.04,0004.11
2024-03-29 21:29:00,SystemResetWarning,0823.5,5.00,000.00,020.7,020.1,000.0,029.2,022.5,27.9,0000.0,0004.58,0009.21,0004.12
2024-03-29 21:30:00,SystemResetWarning,0823.5,5.01,000.00,020.7,020.2,000.0,029.2,022.5,28.1,0000.0,0004.57,0009.19,0004.13
2024-03-29 21:31:00,SystemResetWarning,0823.4,5.01,000.00,020.7,020.2,000.0,029.2,022.5,27.8,0000.0,0004.56,0008.56,0004.14
2024-03-29 21:32:00,SystemResetWarning,0823.4,5.01,000.00,020.7,020.2,000.0,029.2,022.6,27.6,0000.0,0004.57,0008.68,0004.14
2024-03-29 21:33:00,SystemResetWarning,0823.4,5.01,000.00,020.7,020.2,000.0,029.2,022.6,27.6,0000.0,0004.58,0008.69,0004.15
2024-03-29 21:34:00,SystemResetWarning,0823.5,5.00,000.00,020.7,020.2,000.0,029.2,022.6,28.2,0000.0,0004.59,0008.73,0004.16
2024-03-29 21:35:00,SystemResetWarning,0823.5,4.99,000.00,020.7,020.2,000.0,029.2,022.6,28.2,0000.0,0004.61,0008.75,0004.18
2024-03-29 21:36:00,SystemResetWarning,0823.6,5.00,000.00,020.8,020.2,000.0,029.2,022.6,27.9,0000.0,0004.63,0008.77,0004.19
2024-03-29 21:37:00,SystemResetWarning,0823.6,5.00,000.00,020.8,020.2,000.0,029.2,022.6,28.0,0000.0,0004.63,0008.75,0004.19
2024-03-29 21:38:00,SystemResetWarning,0823.6,5.00,000.00,020.8,020.2,000.0,029.2,022.6,27.8,0000.0,0004.63,0008.60,0004.20
2024-03-29 21:39:00,SystemResetWarning,0823.7,5.00,000.00,020.8,020.2,000.0,029.2,022.6,27.6,0000.0,0004.65,0008.14,0004.21
2024-03-29 21:40:00,SystemResetWarning,0823.7,5.00,000.00,020.8,020.2,000.0,029.2,022.6,27.7,0000.0,0004.66,0008.01,0004.20
2024-03-29 21:41:00,SystemResetWarning,0823.7,5.00,000.00,020.8,020.2,000.0,029.2,022.6,27.9,0000.0,0004.66,0008.39,0004.21
2024-03-29 21:42:00,SystemResetWarning,0823.7,5.00,000.00,020.8,020.2,000.0,029.2,022.6,28.3,0000.0,0004.70,0009.41,0004.22
2024-03-29 21:43:00,SystemResetWarning,0823.7,4.99,000.00,020.8,020.2,000.0,029.2,022.6,28.1,0000.0,0004.72,0009.48,0004.23
2024-03-29 21:44:00,SystemResetWarning,0823.7,5.00,000.00,020.8,020.2,000.0,029.2,022.6,28.1,0000.0,0004.75,0009.60,0004.23
2024-03-29 21:45:00,SystemResetWarning,0823.7,5.00,000.00,020.8,020.2,000.0,029.2,022.6,28.0,0000.0,0004.74,0009.63,0004.23
2024-03-29 21:46:00,SystemResetWarning,0823.7,5.00,000.00,020.8,020.2,000.0,029.3,022.6,27.8,0000.0,0004.75,0009.62,0004.22
2024-03-29 21:47:00,SystemResetWarning,0823.7,5.01,000.00,020.8,020.2,000.0,029.3,022.6,27.8,0000.0,0004.75,0009.61,0004.22
2024-03-29 21:48:00,SystemResetWarning,0823.8,5.00,000.00,020.8,020.2,000.0,029.3,022.6,28.0,0000.0,0004.72,0009.59,0004.22
2024-03-29 21:49:00,SystemResetWarning,0823.8,5.00,000.00,020.8,020.2,000.0,029.3,022.6,28.3,0000.0,0004.75,0009.67,0004.24
2024-03-29 21:50:00,SystemResetWarning,0823.8,5.00,000.00,020.8,020.2,000.0,029.3,022.6,28.4,0000.0,0004.76,0010.03,0004.25
2024-03-29 21:51:00,SystemResetWarning,0823.8,4.99,000.00,020.8,020.2,000.0,029.3,022.6,28.5,0000.0,0004.77,0010.03,0004.27
2024-03-29 21:52:00,SystemResetWarning,0823.8,5.00,000.00,020.8,020.2,000.0,029.3,022.6,29.0,0000.0,0004.81,0009.98,0004.28
2024-03-29 21:53:00,SystemResetWarning,0823.8,4.99,000.00,020.8,020.2,000.0,029.3,022.6,29.2,0000.0,0004.82,0008.96,0004.29
2024-03-29 21:54:00,SystemResetWarning,0823.8,5.00,000.00,020.8,020.2,000.0,029.3,022.6,28.8,0000.0,0004.80,0008.67,0004.29
2024-03-29 21:55:00,SystemResetWarning,0823.8,5.00,000.00,020.8,020.2,000.0,029.3,022.6,28.9,0000.0,0004.76,0008.46,0004.28
2024-03-29 21:56:00,SystemResetWarning,0823.8,5.00,000.00,020.8,020.2,000.0,029.3,022.6,28.8,0000.0,0004.78,0008.67,0004.28
2024-03-29 21:57:00,SystemResetWarning,0823.9,5.00,000.00,020.8,020.2,000.0,029.3,022.6,27.8,0000.0,0004.76,0008.69,0004.28
2024-03-29 21:58:00,SystemResetWarning,0823.9,5.01,000.00,020.8,020.2,000.0,029.3,022.6,27.4,0000.0,0004.76,0008.74,0004.27
2024-03-29 21:59:00,SystemResetWarning,0823.9,5.00,000.00,020.8,020.2,000.0,029.3,022.6,27.8,0000.0,0004.78,0008.78,0004.27
